Location: Schommer Observatory
(40.5200°N, 74.4500°W)
Time: 14:21:57
(UTC-05:00)

X-37B - Pass Details

Date: 15 October 2017
Orbit: 259 x 286 km, 43.2° (Epoch: 06 October)

Event Time Altitude Azimuth Distance (km) Brightness Sun altitude
Exits shadow 06:26:09 14° 292° (WNW) 845 3.2 -8.9°
Maximum altitude 06:27:51 37° 358° (N) 412 2.2 -8.6°
Drops below altitude 10° 06:30:03 10° 70° (ENE) 1,035 5.5 -8.2°
Sets 06:32:00 0° 79° (E) 1,841 7.3 -7.8°
